INTELSAT 33E DEB, 62005

Orbit data source: Space-Track

INTELSAT 33E DEB, 62005 is space debris in GEO originally from a launch on Wed, 24 Aug 2016 UTC launched from the French Guiana (FRGUI). Debris objects in space refer to the collection of defunct objects orbiting the Earth. Examples of debris include non-operational satellites, rocket bodies, and fragments generated from explosions, collisions, or faulty payload assembly.

Not visible in the next 10 days
Identifier
62005, 2016-053X
Orbit
GEO
Country
Flag of USUS / ITSO
Related business
Manufacturer
Boeing/ES
Mission
Spacecraft
Bus & Motor
Unknown
Mass
Unknown
Launch date (UTC)
2016-08-24 (10 years ago)
Launch vehicle
Unknown
Launch site
French Guiana (FRGUI)
Object type
Payload
Rocket body
Debris
Shape & HBR
Unknown shape, 1.1 m
Radar Cross Section
RCS unknown

Expand to show TLE details & history
Last TLE update: 6 hours ago

TLE from 6 hours ago
0 INTELSAT 33E DEB
1 62005U 16053X   26121.43399757 -.00000230  00000-0  00000+0 0  9992
2 62005   1.6208  97.8639 0283868 247.9325 109.2742  1.04574983  5822
Epoch: 2026-05-01T10:24Z
TLE epoch observation values (Epoch: 2026-05-01T10:24:57.390Z)
Latitude
-0°
Longitude
82.4961°
Altitude
35,028.293 km
Speed
3.087 km/s
True Right ascension
06h 32m 24s
True Declination
0° 00' 00"
Sunlit
Object was in daylight at epoch
Visualization orbit readout
Latitude
Unknown
Longitude
Unknown
Altitude
Unknown
Speed
Unknown
Apparent Right ascension
Unknown
Apparent Declination
Unknown
Sunlit
N/A
Visualization observer readout
Local Sidereal Time
00:07:13
Azimuth
Unknown
Elevation
Unknown
Doppler factor
Unknown
Orbital elements
Apogee altitude
35,786.799 km
Perigee altitude
33,459.022 km
Semi-major axis
41,001.047 km
Eccentricity
0.02839
Inclination
1.6208°
RAAN
97.8639°
Arg. of periapsis
247.9325°
True anomaly
112.30778°
Mean anomaly
109.2742°
Eccentric anomaly
110.79469°
Mean motion
0.26143 °/min
Orbital period
1,377.06 mins
BSTAR
0
Loading maneuver chart data...
Computing Atmospheric mass density...
Loading historical data...
Loading historical data...
Loading historical data...
Loading historical data...
Loading historical data...
Loading historical data...
Loading historical data...

Documentation

Showing up to 5 results
|